Flag for Germany Weather past 2 weeks in Amberg, Bavaria, Germany

Now
75 °F

Partly sunny.


Feels Like: 78 °F
Forecast: 59 / 81 °F
Wind: 2 mph from Southeast

Location: Hohenfels

Current Time: Aug 1, 2014 at 6:15:29 PM

Latest Report: Aug 1, 2014 at 4:58 PM


Visibility: N/A

Pressure: 29.89 "Hg

Humidity: 50%

Dew point: 55 °F

Location of AmbergLocation

Historic Weather in Amberg — Graph

°F

Amberg temperature yesterday

Maximum temperature yesterday: 72 °F (at 2:58 PM)
Minimum temperature yesterday: 55 °F (at 11:58 PM)
Average temperature yesterday: 65 °F

Past Weeks' High & Low Weather Summary

 TemperatureHumidityPressure
High90 °F (Jul 20, 3:58 PM)100% (Jul 21, 11:58 PM)30.15 "Hg (Jul 21, 11:58 PM)
Low50 °F (Aug 1, 5:58 AM)24% (Jul 20, 3:58 PM)29.71 "Hg (Jul 29, 3:58 PM)
Average68 °F73%29.92 "Hg
* Reported Jul 17 4:58 PM — Aug 1 4:58 PM, Amberg, Weather by CustomWeather, © 2014

Note: Actual official high and low records may vary slightly from our data, if they occured in-between our weather recording intervals... More about our weather records

Advertising

Amberg weather history for previous 24 hours

 ConditionsComfort  
Time TempWeatherWind HumidityBarometerVisibility
4:58 PM
Aug 1
75 °FPartly sunny.2 mph50%29.89 "HgN/A
3:58 PM77 °FSunny.5 mph47%29.90 "HgN/A
2:58 PM75 °FPassing clouds.6 mph50%29.91 "HgN/A
1:58 PM75 °FPassing clouds.6 mph54%29.92 "HgN/A
12:58 PM73 °FSunny.2 mph53%29.94 "HgN/A
11:58 AM72 °FSunny.7 mph57%29.95 "HgN/A
10:58 AM70 °FSunny.5 mph64%29.96 "HgN/A
9:58 AM66 °FSunny.5 mph73%29.95 "HgN/A
8:58 AM63 °FSunny.3 mph83%29.96 "HgN/A
7:58 AM57 °FSunny.No wind94%29.95 "HgN/A
6:58 AM52 °FSunny.No wind100%29.96 "HgN/A
5:58 AM50 °FClear.1 mph100%29.97 "HgN/A
4:58 AM52 °FClear.No wind94%29.97 "HgN/A
3:58 AM52 °FClear.No wind100%29.98 "HgN/A
2:58 AM52 °FClear.1 mph100%29.98 "HgN/A
1:58 AM54 °FClear.1 mph94%29.98 "HgN/A
12:58 AM55 °FClear.1 mph94%30.00 "HgN/A
11:58 PM
Jul 31
55 °FClear.2 mph94%30.00 "HgN/A
10:58 PM57 °FClear.2 mph94%29.98 "HgN/A
9:58 PM59 °FClear.2 mph94%29.98 "HgN/A
8:58 PM63 °FSunny.2 mph88%29.98 "HgN/A
7:58 PM70 °FSunny.No wind69%29.96 "HgN/A
6:58 PM72 °FScattered clouds.2 mph53%29.95 "HgN/A
Weather by CustomWeather, © 2014

See weather overviewHow to use our weather pages